| time (UTC) | temp F | wind direction | speed MPH | gust MPH | rain 1hr in | rain 24hr in | rain mn in | humidity % | barometer mb |
| 20260902043559 | 64 | 0 | 0.0 | 1.0 | 0.00 | 0.30 | 0.00 | 92 | 1019.6 |
| 20260902043103 | 64 | 0 | 0.0 | 3.0 | 0.00 | 0.30 | 0.00 | 92 | 1019.6 |
| 20260902042559 | 64 | 0 | 0.0 | 3.0 | 0.00 | 0.30 | 0.00 | 92 | 1019.6 |
| 20260902042059 | 64 | 333 | 0.0 | 2.0 | 0.00 | 0.30 | 0.00 | 92 | 1019.5 |
| 20260902041610 | 64 | 0 | 0.0 | 3.0 | 0.00 | 0.30 | 0.00 | 91 | 1019.6 |
| 20260902041059 | 64 | 0 | 1.0 | 3.0 | 0.00 | 0.30 | 0.00 | 91 | 1019.6 |
| 20260902040559 | 64 | 0 | 0.0 | 2.0 | 0.00 | 0.30 | 0.00 | 91 | 1019.5 |
| 20260902040106 | 64 | 337 | 0.0 | 4.0 | 0.00 | 0.30 | 0.00 | 91 | 1019.4 |
| 20260902035558 | 64 | 0 | 1.0 | 6.0 | 0.00 | 0.30 | 0.30 | 91 | 1019.4 |
| 20260902035059 | 64 | 3 | 1.0 | 6.0 | 0.00 | 0.30 | 0.30 | 91 | 1019.4 |
| 20260902034603 | 64 | 285 | 1.0 | 7.0 | 0.00 | 0.30 | 0.30 | 91 | 1019.3 |
| 20260902034058 | 64 | 176 | 2.0 | 7.0 | 0.00 | 0.30 | 0.30 | 92 | 1019.3 |
| 20260902033558 | 64 | 280 | 1.0 | 6.0 | 0.00 | 0.30 | 0.30 | 92 | 1019.2 |
| 20260902033114 | 64 | 238 | 1.0 | 6.0 | 0.00 | 0.30 | 0.30 | 92 | 1019.2 |
| 20260902032600 | 64 | 0 | 2.0 | 8.0 | 0.00 | 0.30 | 0.30 | 92 | 1019.3 |
| 20260902032059 | 64 | 0 | 2.0 | 8.0 | 0.00 | 0.30 | 0.30 | 92 | 1019.3 |
| 20260902031606 | 64 | 0 | 4.0 | 12.0 | 0.00 | 0.30 | 0.30 | 93 | 1019.3 |
| 20260902031059 | 64 | 143 | 1.0 | 12.0 | 0.00 | 0.30 | 0.30 | 93 | 1019.3 |
| 20260902030602 | 64 | 279 | 1.0 | 7.0 | 0.00 | 0.30 | 0.30 | 93 | 1019.4 |
| 20260902030116 | 64 | 0 | 0.0 | 1.0 | 0.00 | 0.30 | 0.30 | 93 | 1019.4 |
| 20260902025559 | 64 | 0 | 0.0 | 2.0 | 0.00 | 0.30 | 0.30 | 93 | 1019.5 |
| 20260902025100 | 64 | 0 | 0.0 | 2.0 | 0.00 | 0.30 | 0.30 | 93 | 1019.5 |
| 20260902024620 | 64 | 0 | 0.0 | 2.0 | 0.00 | 0.30 | 0.30 | 93 | 1019.5 |
| 20260902024059 | 64 | 271 | 0.0 | 2.0 | 0.00 | 0.30 | 0.30 | 93 | 1019.6 |
| 20260902023559 | 64 | 252 | 0.0 | 4.0 | 0.00 | 0.30 | 0.30 | 93 | 1019.5 |
| 20260902023114 | 64 | 0 | 1.0 | 5.0 | 0.00 | 0.30 | 0.30 | 93 | 1019.6 |
| 20260902022600 | 64 | 0 | 0.0 | 5.0 | 0.00 | 0.30 | 0.30 | 93 | 1019.5 |
| 20260902022101 | 64 | 0 | 0.0 | 3.0 | 0.00 | 0.30 | 0.30 | 93 | 1019.5 |
| 20260902021619 | 64 | 300 | 1.0 | 3.0 | 0.00 | 0.30 | 0.30 | 93 | 1019.6 |
| 20260902021058 | 64 | 255 | 1.0 | 4.0 | 0.00 | 0.30 | 0.30 | 93 | 1019.5 |
| 20260902020559 | 64 | 255 | 0.0 | 6.0 | 0.00 | 0.30 | 0.30 | 93 | 1019.4 |
| 20260902015559 | 64 | 250 | 1.0 | 5.0 | 0.00 | 0.30 | 0.30 | 94 | 1019.3 |
| 20260902015058 | 64 | 276 | 0.0 | 4.0 | 0.00 | 0.30 | 0.30 | 94 | 1019.1 |
| 20260902014603 | 64 | 265 | 1.0 | 4.0 | 0.00 | 0.30 | 0.30 | 94 | 1019.0 |
| 20260902014058 | 64 | 0 | 1.0 | 4.0 | 0.00 | 0.30 | 0.30 | 94 | 1018.8 |
| 20260902013601 | 64 | 354 | 1.0 | 4.0 | 0.00 | 0.30 | 0.30 | 94 | 1018.7 |
| 20260902013104 | 64 | 264 | 0.0 | 4.0 | 0.00 | 0.30 | 0.30 | 94 | 1018.7 |
| 20260902012559 | 64 | 297 | 2.0 | 4.0 | 0.00 | 0.30 | 0.30 | 94 | 1018.6 |
| 20260902012501 | 64 | 257 | 1.0 | 3.0 | 0.00 | 0.30 | 0.30 | 94 | 1018.7 |
| 20260902011605 | 64 | 315 | 0.0 | 3.0 | 0.00 | 0.30 | 0.30 | 94 | 1018.7 |
| 20260902011058 | 64 | 0 | 0.0 | 3.0 | 0.00 | 0.30 | 0.30 | 94 | 1018.8 |
| 20260902010559 | 64 | 303 | 1.0 | 3.0 | 0.00 | 0.30 | 0.30 | 93 | 1018.9 |
| 20260902010105 | 64 | 0 | 0.0 | 2.0 | 0.00 | 0.30 | 0.30 | 93 | 1019.0 |
| 20260902005558 | 64 | 0 | 0.0 | 2.0 | 0.00 | 0.30 | 0.30 | 93 | 1018.9 |
| 20260902005103 | 64 | 325 | 0.0 | 2.0 | 0.00 | 0.30 | 0.30 | 93 | 1018.8 |
| 20260902004607 | 64 | 300 | 0.0 | 1.0 | 0.00 | 0.30 | 0.30 | 94 | 1018.7 |
| 20260902004058 | 64 | 0 | 0.0 | 2.0 | 0.00 | 0.30 | 0.30 | 93 | 1018.9 |
| 20260902003558 | 64 | 278 | 0.0 | 3.0 | 0.00 | 0.30 | 0.30 | 93 | 1018.8 |
| 20260902003104 | 64 | 0 | 1.0 | 3.0 | 0.00 | 0.30 | 0.30 | 93 | 1018.9 |
| 20260902002600 | 64 | 288 | 0.0 | 2.0 | 0.00 | 0.30 | 0.30 | 93 | 1018.9 |
| 20260902002059 | 64 | 331 | 0.0 | 2.0 | 0.00 | 0.30 | 0.30 | 93 | 1018.8 |
| 20260902001605 | 64 | 0 | 0.0 | 2.0 | 0.00 | 0.30 | 0.30 | 93 | 1018.8 |
| 20260902001059 | 64 | 274 | 0.0 | 2.0 | 0.00 | 0.30 | 0.30 | 93 | 1018.7 |
| 20260902000601 | 64 | 0 | 0.0 | 3.0 | 0.00 | 0.30 | 0.30 | 93 | 1018.7 |
| 20260902000104 | 64 | 288 | 1.0 | 3.0 | 0.00 | 0.30 | 0.30 | 93 | 1018.6 |
| 20260901235557 | 64 | 356 | 0.0 | 3.0 | 0.00 | 0.30 | 0.30 | 93 | 1018.5 |
| 20260901235100 | 64 | 0 | 0.0 | 3.0 | 0.00 | 0.30 | 0.30 | 93 | 1018.4 |
| 20260901234617 | 65 | 45 | 0.0 | 4.0 | 0.00 | 0.30 | 0.30 | 93 | 1018.3 |
| 20260901234101 | 64 | 280 | 0.0 | 4.0 | 0.00 | 0.30 | 0.30 | 93 | 1018.4 |
| 20260901233558 | 65 | 13 | 1.0 | 3.0 | 0.00 | 0.30 | 0.30 | 93 | 1018.4 |
| 20260901233104 | 65 | 303 | 0.0 | 4.0 | 0.00 | 0.30 | 0.30 | 93 | 1018.2 |
| 20260901232600 | 64 | 82 | 1.0 | 4.0 | 0.00 | 0.30 | 0.30 | 93 | 1018.2 |
| 20260901232100 | 65 | 279 | 2.0 | 6.0 | 0.00 | 0.30 | 0.30 | 93 | 1018.1 |
| 20260901231602 | 65 | 301 | 1.0 | 6.0 | 0.00 | 0.30 | 0.30 | 93 | 1018.2 |
| 20260901231059 | 65 | 253 | 2.0 | 5.0 | 0.00 | 0.30 | 0.30 | 93 | 1018.3 |
| 20260901230600 | 65 | 262 | 1.0 | 3.0 | 0.00 | 0.30 | 0.30 | 93 | 1018.2 |
| 20260901230138 | 65 | 281 | 0.0 | 5.0 | 0.00 | 0.30 | 0.30 | 93 | 1018.2 |
| 20260901225600 | 65 | 316 | 1.0 | 5.0 | 0.00 | 0.30 | 0.30 | 93 | 1018.1 |
| 20260901225058 | 65 | 269 | 2.0 | 5.0 | 0.00 | 0.30 | 0.30 | 93 | 1018.1 |
| 20260901224602 | 65 | 242 | 1.0 | 5.0 | 0.00 | 0.30 | 0.30 | 93 | 1018.0 |
| 20260901224057 | 65 | 280 | 2.0 | 5.0 | 0.00 | 0.30 | 0.30 | 93 | 1018.1 |
| 20260901223558 | 65 | 314 | 1.0 | 3.0 | 0.00 | 0.30 | 0.30 | 93 | 1018.2 |
| 20260901223119 | 65 | 253 | 1.0 | 4.0 | 0.00 | 0.30 | 0.30 | 93 | 1018.2 |
| 20260901222559 | 65 | 301 | 1.0 | 4.0 | 0.00 | 0.30 | 0.30 | 93 | 1018.1 |
| 20260901222059 | 65 | 319 | 1.0 | 4.0 | 0.00 | 0.30 | 0.30 | 93 | 1018.1 |
| 20260901221604 | 65 | 0 | 1.0 | 3.0 | 0.00 | 0.30 | 0.30 | 92 | 1018.0 |
| 20260901221100 | 65 | 0 | 1.0 | 4.0 | 0.00 | 0.30 | 0.30 | 92 | 1018.2 |
| 20260901220558 | 65 | 269 | 2.0 | 4.0 | 0.00 | 0.30 | 0.30 | 92 | 1018.3 |
| 20260901220104 | 65 | 247 | 1.0 | 4.0 | 0.00 | 0.30 | 0.30 | 93 | 1018.3 |
| 20260901215558 | 66 | 291 | 1.0 | 5.0 | 0.00 | 0.30 | 0.30 | 92 | 1018.3 |
| 20260901215057 | 66 | 202 | 0.0 | 5.0 | 0.00 | 0.30 | 0.30 | 92 | 1018.4 |
| 20260901214605 | 66 | 277 | 1.0 | 3.0 | 0.00 | 0.30 | 0.30 | 92 | 1018.3 |
| 20260901214059 | 66 | 266 | 1.0 | 6.0 | 0.00 | 0.30 | 0.30 | 92 | 1018.2 |
| 20260901213601 | 66 | 290 | 1.0 | 6.0 | 0.00 | 0.30 | 0.30 | 92 | 1018.3 |
| 20260901213101 | 66 | 280 | 3.0 | 6.0 | 0.00 | 0.30 | 0.30 | 92 | 1018.1 |
| 20260901212600 | 66 | 301 | 1.0 | 4.0 | 0.00 | 0.30 | 0.30 | 93 | 1018.1 |
| 20260901212058 | 66 | 278 | 2.0 | 4.0 | 0.00 | 0.30 | 0.30 | 93 | 1017.9 |
| 20260901211601 | 66 | 300 | 2.0 | 4.0 | 0.00 | 0.30 | 0.30 | 93 | 1017.8 |
| 20260901211100 | 66 | 276 | 2.0 | 4.0 | 0.00 | 0.30 | 0.30 | 93 | 1017.8 |
| 20260901210558 | 66 | 286 | 1.0 | 4.0 | 0.00 | 0.30 | 0.30 | 93 | 1017.8 |
| 20260901210105 | 66 | 0 | 1.0 | 4.0 | 0.00 | 0.30 | 0.30 | 93 | 1017.8 |
| 20260901205559 | 66 | 257 | 1.0 | 3.0 | 0.00 | 0.30 | 0.30 | 93 | 1017.7 |
| 20260901205058 | 66 | 303 | 1.0 | 2.0 | 0.00 | 0.30 | 0.30 | 93 | 1017.6 |
| 20260901204602 | 67 | 6 | 0.0 | 3.0 | 0.00 | 0.30 | 0.30 | 93 | 1017.7 |
| 20260901204100 | 67 | 311 | 0.0 | 3.0 | 0.00 | 0.30 | 0.30 | 93 | 1017.7 |
| 20260901203559 | 67 | 326 | 0.0 | 3.0 | 0.00 | 0.30 | 0.30 | 93 | 1017.6 |
| 20260901203110 | 67 | 0 | 1.0 | 3.0 | 0.00 | 0.30 | 0.30 | 93 | 1017.7 |
| 20260901202557 | 67 | 316 | 1.0 | 3.0 | 0.00 | 0.30 | 0.30 | 93 | 1017.7 |
| 20260901202058 | 67 | 300 | 0.0 | 3.0 | 0.00 | 0.30 | 0.30 | 93 | 1017.7 |
| 20260901201607 | 67 | 295 | 0.0 | 3.0 | 0.00 | 0.30 | 0.30 | 93 | 1017.6 |
| 20260901201101 | 67 | 3 | 1.0 | 3.0 | 0.00 | 0.30 | 0.30 | 93 | 1017.5 |
| 20260901200557 | 67 | 303 | 1.0 | 2.0 | 0.00 | 0.30 | 0.30 | 93 | 1017.6 |
| 20260901200108 | 67 | 314 | 0.0 | 3.0 | 0.00 | 0.30 | 0.30 | 93 | 1017.6 |
| 20260901195600 | 67 | 314 | 1.0 | 4.0 | 0.00 | 0.30 | 0.30 | 93 | 1017.7 |
| 20260901195100 | 67 | 347 | 0.0 | 4.0 | 0.00 | 0.30 | 0.30 | 93 | 1017.5 |
| 20260901194607 | 67 | 324 | 2.0 | 4.0 | 0.00 | 0.30 | 0.30 | 94 | 1017.5 |
| 20260901194059 | 67 | 304 | 0.0 | 4.0 | 0.00 | 0.30 | 0.30 | 94 | 1017.4 |
| 20260901193559 | 67 | 341 | 1.0 | 4.0 | 0.00 | 0.30 | 0.30 | 94 | 1017.4 |
| 20260901193106 | 67 | 316 | 1.0 | 4.0 | 0.00 | 0.30 | 0.30 | 94 | 1017.5 |
| 20260901192600 | 67 | 339 | 1.0 | 3.0 | 0.00 | 0.30 | 0.30 | 94 | 1017.3 |
| 20260901192101 | 67 | 0 | 0.0 | 4.0 | 0.00 | 0.30 | 0.30 | 94 | 1017.3 |
| 20260901191604 | 66 | 293 | 0.0 | 4.0 | 0.00 | 0.30 | 0.30 | 94 | 1017.4 |
| 20260901191058 | 66 | 20 | 1.0 | 3.0 | 0.00 | 0.30 | 0.30 | 94 | 1017.5 |
| 20260901190600 | 66 | 285 | 0.0 | 3.0 | 0.00 | 0.30 | 0.30 | 94 | 1017.6 |
| 20260901190110 | 66 | 0 | 0.0 | 2.0 | 0.00 | 0.30 | 0.30 | 94 | 1017.6 |
| 20260901185559 | 66 | 309 | 0.0 | 3.0 | 0.00 | 0.30 | 0.30 | 94 | 1017.5 |
| 20260901185101 | 66 | 0 | 0.0 | 3.0 | 0.00 | 0.30 | 0.30 | 94 | 1017.6 |
| 20260901184602 | 66 | 292 | 0.0 | 2.0 | 0.00 | 0.30 | 0.30 | 94 | 1017.7 |
| 20260901184100 | 66 | 0 | 0.0 | 2.0 | 0.01 | 0.30 | 0.30 | 94 | 1017.7 |
| 20260901183604 | 66 | 0 | 0.0 | 4.0 | 0.01 | 0.30 | 0.30 | 94 | 1017.8 |
| 20260901183107 | 66 | 0 | 0.0 | 4.0 | 0.01 | 0.30 | 0.30 | 95 | 1017.7 |
| 20260901182600 | 65 | 0 | 1.0 | 4.0 | 0.01 | 0.30 | 0.30 | 95 | 1017.7 |
| 20260901182059 | 65 | 60 | 0.0 | 6.0 | 0.01 | 0.30 | 0.30 | 95 | 1017.8 |
| 20260901181604 | 65 | 108 | 1.0 | 6.0 | 0.01 | 0.30 | 0.30 | 95 | 1017.8 |
| 20260901181058 | 65 | 6 | 0.0 | 4.0 | 0.01 | 0.30 | 0.30 | 95 | 1017.8 |
| 20260901180558 | 65 | 41 | 1.0 | 5.0 | 0.01 | 0.30 | 0.30 | 95 | 1017.8 |
| 20260901180103 | 65 | 44 | 1.0 | 6.0 | 0.01 | 0.30 | 0.30 | 95 | 1017.8 |
| 20260901175603 | 64 | 48 | 1.0 | 6.0 | 0.01 | 0.30 | 0.30 | 95 | 1017.8 |
| 20260901175059 | 64 | 0 | 3.0 | 6.0 | 0.01 | 0.30 | 0.30 | 95 | 1017.8 |
| 20260901174607 | 64 | 58 | 2.0 | 6.0 | 0.01 | 0.30 | 0.30 | 95 | 1017.9 |
| 20260901174102 | 64 | 32 | 2.0 | 6.0 | 0.00 | 0.29 | 0.29 | 96 | 1017.9 |
| 20260901173559 | 64 | 58 | 1.0 | 4.0 | 0.00 | 0.29 | 0.29 | 95 | 1017.8 |
| 20260901173112 | 64 | 0 | 0.0 | 2.0 | 0.00 | 0.29 | 0.29 | 95 | 1017.8 |
| 20260901172600 | 63 | 0 | 0.0 | 2.0 | 0.00 | 0.29 | 0.29 | 95 | 1017.8 |
| 20260901172100 | 63 | 0 | 0.0 | 3.0 | 0.00 | 0.29 | 0.29 | 95 | 1017.8 |
| 20260901171620 | 63 | 307 | 0.0 | 3.0 | 0.00 | 0.29 | 0.29 | 96 | 1018.0 |
| 20260901171102 | 63 | 322 | 1.0 | 3.0 | 0.00 | 0.29 | 0.29 | 95 | 1017.9 |
| 20260901170559 | 63 | 284 | 0.0 | 2.0 | 0.00 | 0.29 | 0.29 | 95 | 1018.0 |
| 20260901170105 | 63 | 291 | 1.0 | 2.0 | 0.00 | 0.29 | 0.29 | 95 | 1017.9 |
| 20260901165601 | 63 | 321 | 0.0 | 2.0 | 0.00 | 0.29 | 0.29 | 95 | 1018.1 |
| 20260901165100 | 63 | 0 | 0.0 | 4.0 | 0.00 | 0.29 | 0.29 | 95 | 1018.1 |
| 20260901164635 | 63 | 0 | 1.0 | 4.0 | 0.00 | 0.29 | 0.29 | 95 | 1018.1 |
| 20260901164059 | 62 | 326 | 1.0 | 4.0 | 0.00 | 0.29 | 0.29 | 95 | 1018.1 |
| 20260901163558 | 62 | 305 | 1.0 | 4.0 | 0.00 | 0.29 | 0.29 | 95 | 1018.0 |
| 20260901163104 | 62 | 321 | 1.0 | 4.0 | 0.00 | 0.29 | 0.29 | 95 | 1018.0 |
| 20260901162602 | 62 | 313 | 1.0 | 4.0 | 0.00 | 0.29 | 0.29 | 95 | 1018.2 |
| 20260901162059 | 62 | 316 | 1.0 | 4.0 | 0.00 | 0.29 | 0.29 | 95 | 1018.1 |
| 20260901161608 | 63 | 319 | 1.0 | 4.0 | 0.01 | 0.29 | 0.29 | 95 | 1018.1 |
| 20260901161126 | 63 | 0 | 1.0 | 4.0 | 0.01 | 0.29 | 0.29 | 95 | 1018.0 |
| 20260901160559 | 63 | 345 | 0.0 | 4.0 | 0.01 | 0.29 | 0.29 | 95 | 1017.8 |
| 20260901155558 | 63 | 0 | 2.0 | 5.0 | 0.01 | 0.29 | 0.29 | 95 | 1017.7 |
| 20260901155058 | 63 | 44 | 1.0 | 3.0 | 0.01 | 0.29 | 0.29 | 95 | 1017.4 |
| 20260901154604 | 63 | 0 | 0.0 | 5.0 | 0.01 | 0.29 | 0.29 | 95 | 1017.4 |
| 20260901154058 | 63 | 0 | 1.0 | 5.0 | 0.01 | 0.29 | 0.29 | 95 | 1017.4 |
| 20260901153559 | 63 | 19 | 1.0 | 5.0 | 0.01 | 0.29 | 0.29 | 96 | 1017.5 |
| 20260901153103 | 63 | 342 | 1.0 | 5.0 | 0.01 | 0.29 | 0.29 | 96 | 1017.4 |
| 20260901152558 | 63 | 351 | 1.0 | 5.0 | 0.01 | 0.29 | 0.29 | 96 | 1017.4 |
| 20260901152058 | 63 | 354 | 0.0 | 3.0 | 0.01 | 0.29 | 0.29 | 96 | 1017.4 |
| 20260901151602 | 63 | 0 | 0.0 | 3.0 | 0.00 | 0.28 | 0.28 | 96 | 1017.3 |
| 20260901151100 | 63 | 338 | 0.0 | 4.0 | 0.00 | 0.28 | 0.28 | 96 | 1017.4 |
| 20260901150558 | 64 | 318 | 1.0 | 4.0 | 0.00 | 0.28 | 0.28 | 95 | 1017.5 |
| 20260901150105 | 64 | 5 | 0.0 | 4.0 | 0.00 | 0.28 | 0.28 | 95 | 1017.6 |
| 20260901145600 | 64 | 15 | 1.0 | 4.0 | 0.00 | 0.28 | 0.28 | 95 | 1017.7 |
| 20260901145058 | 64 | 1 | 0.0 | 3.0 | 0.00 | 0.28 | 0.28 | 96 | 1017.7 |
| 20260901144605 | 64 | 0 | 0.0 | 2.0 | 0.00 | 0.28 | 0.28 | 96 | 1017.6 |
| 20260901144058 | 64 | 0 | 0.0 | 3.0 | 0.00 | 0.28 | 0.28 | 96 | 1017.6 |
| 20260901143558 | 64 | 0 | 1.0 | 3.0 | 0.00 | 0.28 | 0.28 | 96 | 1017.5 |
| 20260901143103 | 63 | 0 | 0.0 | 3.0 | 0.00 | 0.28 | 0.28 | 96 | 1017.3 |
| 20260901142600 | 63 | 16 | 1.0 | 3.0 | 0.00 | 0.28 | 0.28 | 96 | 1017.2 |
| 20260901142058 | 63 | 0 | 0.0 | 2.0 | 0.00 | 0.28 | 0.28 | 96 | 1017.1 |
| 20260901141610 | 63 | 0 | 0.0 | 2.0 | 0.00 | 0.28 | 0.28 | 96 | 1017.2 |
| 20260901141101 | 63 | 0 | 1.0 | 2.0 | 0.00 | 0.28 | 0.28 | 95 | 1017.1 |
| 20260901140557 | 63 | 0 | 0.0 | 3.0 | 0.00 | 0.28 | 0.28 | 96 | 1017.1 |
| 20260901140106 | 63 | 303 | 0.0 | 3.0 | 0.00 | 0.28 | 0.28 | 95 | 1017.2 |
| 20260901135558 | 63 | 0 | 0.0 | 3.0 | 0.00 | 0.28 | 0.28 | 96 | 1017.3 |
| 20260901135058 | 63 | 0 | 0.0 | 3.0 | 0.00 | 0.28 | 0.28 | 96 | 1017.3 |
| 20260901134604 | 63 | 0 | 0.0 | 3.0 | 0.00 | 0.28 | 0.28 | 96 | 1017.1 |
| 20260901134059 | 63 | 0 | 0.0 | 2.0 | 0.00 | 0.28 | 0.28 | 96 | 1017.3 |
| 20260901133558 | 63 | 309 | 0.0 | 2.0 | 0.00 | 0.28 | 0.28 | 96 | 1017.3 |
| 20260901133105 | 63 | 312 | 0.0 | 2.0 | 0.00 | 0.28 | 0.28 | 96 | 1017.5 |
| 20260901132603 | 63 | 0 | 0.0 | 1.0 | 0.00 | 0.28 | 0.28 | 96 | 1017.6 |
| 20260901132058 | 62 | 0 | 0.0 | 1.0 | 0.00 | 0.28 | 0.28 | 95 | 1017.6 |
| 20260901131612 | 62 | 0 | 0.0 | 2.0 | 0.00 | 0.28 | 0.28 | 95 | 1017.7 |
| 20260901131058 | 62 | 44 | 0.0 | 2.0 | 0.01 | 0.28 | 0.28 | 95 | 1017.8 |
| 20260901130558 | 62 | 165 | 0.0 | 1.0 | 0.02 | 0.28 | 0.28 | 96 | 1017.8 |
| 20260901130108 | 62 | 0 | 0.0 | 2.0 | 0.02 | 0.28 | 0.28 | 96 | 1017.9 |
| 20260901125558 | 62 | 0 | 0.0 | 2.0 | 0.02 | 0.28 | 0.28 | 95 | 1017.9 |
| 20260901125058 | 62 | 0 | 0.0 | 3.0 | 0.03 | 0.28 | 0.28 | 96 | 1017.9 |
| 20260901124611 | 62 | 255 | 0.0 | 3.0 | 0.03 | 0.28 | 0.28 | 96 | 1017.8 |
| 20260901124101 | 62 | 0 | 0.0 | 1.0 | 0.05 | 0.28 | 0.28 | 95 | 1017.9 |
| 20260901123601 | 62 | 0 | 0.0 | 2.0 | 0.06 | 0.28 | 0.28 | 95 | 1017.8 |
| 20260901123102 | 62 | 0 | 0.0 | 3.0 | 0.07 | 0.28 | 0.28 | 95 | 1018.0 |
| 20260901122559 | 62 | 0 | 0.0 | 3.0 | 0.08 | 0.28 | 0.28 | 95 | 1017.9 |
| 20260901122101 | 62 | 351 | 0.0 | 2.0 | 0.09 | 0.28 | 0.28 | 95 | 1017.9 |
| 20260901121613 | 62 | 18 | 0.0 | 2.0 | 0.09 | 0.28 | 0.28 | 95 | 1018.1 |
| 20260901121058 | 62 | 317 | 0.0 | 2.0 | 0.09 | 0.27 | 0.27 | 95 | 1018.0 |
| 20260901120558 | 62 | 0 | 0.0 | 2.0 | 0.08 | 0.26 | 0.26 | 95 | 1017.9 |
| 20260901120124 | 62 | 296 | 0.0 | 1.0 | 0.10 | 0.26 | 0.26 | 95 | 1018.1 |
| 20260901115559 | 62 | 0 | 0.0 | 1.0 | 0.11 | 0.26 | 0.26 | 95 | 1018.1 |
| 20260901115103 | 62 | 0 | 0.0 | 2.0 | 0.11 | 0.25 | 0.25 | 95 | 1018.2 |
| 20260901114611 | 62 | 0 | 0.0 | 2.0 | 0.12 | 0.25 | 0.25 | 95 | 1018.1 |
| 20260901114058 | 62 | 70 | 0.0 | 1.0 | 0.11 | 0.23 | 0.23 | 95 | 1018.1 |
| 20260901113558 | 62 | 332 | 0.0 | 1.0 | 0.11 | 0.22 | 0.22 | 95 | 1017.9 |
| 20260901113102 | 62 | 0 | 0.0 | 4.0 | 0.11 | 0.21 | 0.21 | 95 | 1017.8 |
| 20260901112601 | 62 | 0 | 1.0 | 4.0 | 0.11 | 0.20 | 0.20 | 95 | 1017.9 |
| 20260901112101 | 62 | 164 | 1.0 | 4.0 | 0.12 | 0.19 | 0.19 | 95 | 1017.9 |
| 20260901111616 | 62 | 16 | 0.0 | 3.0 | 0.13 | 0.19 | 0.19 | 95 | 1017.7 |
| 20260901111057 | 62 | 0 | 0.0 | 3.0 | 0.14 | 0.18 | 0.18 | 95 | 1017.8 |
| 20260901110557 | 62 | 0 | 0.0 | 3.0 | 0.15 | 0.18 | 0.18 | 95 | 1017.7 |
| 20260901110106 | 62 | 0 | 0.0 | 1.0 | 0.14 | 0.16 | 0.16 | 95 | 1017.3 |
| 20260901105559 | 62 | 0 | 0.0 | 1.0 | 0.14 | 0.15 | 0.15 | 95 | 1017.6 |
| 20260901105100 | 62 | 0 | 0.0 | 1.0 | 0.14 | 0.14 | 0.14 | 95 | 1017.6 |
| 20260901104605 | 62 | 0 | 0.0 | 1.0 | 0.13 | 0.13 | 0.13 | 95 | 1017.8 |
| 20260901104059 | 62 | 0 | 0.0 | 1.0 | 0.12 | 0.12 | 0.12 | 95 | 1018.0 |
| 20260901103558 | 62 | 0 | 0.0 | 1.0 | 0.11 | 0.11 | 0.11 | 95 | 1017.9 |
| 20260901103124 | 62 | 0 | 0.0 | 1.0 | 0.10 | 0.10 | 0.10 | 95 | 1018.0 |
| 20260901102558 | 62 | 0 | 0.0 | 1.0 | 0.09 | 0.09 | 0.09 | 95 | 1018.0 |
| 20260901102100 | 63 | 0 | 0.0 | 1.0 | 0.07 | 0.07 | 0.07 | 95 | 1018.0 |
| 20260901101618 | 63 | 0 | 0.0 | 1.0 | 0.06 | 0.06 | 0.06 | 95 | 1018.0 |
| 20260901101100 | 63 | 0 | 0.0 | 2.0 | 0.04 | 0.04 | 0.04 | 95 | 1018.2 |
| 20260901100601 | 63 | 0 | 0.0 | 2.0 | 0.03 | 0.03 | 0.03 | 95 | 1018.2 |
| 20260901100106 | 63 | 0 | 0.0 | 2.0 | 0.02 | 0.02 | 0.02 | 95 | 1017.9 |
| 20260901095558 | 63 | 0 | 0.0 | 2.0 | 0.01 | 0.01 | 0.01 | 95 | 1017.7 |
| 20260901095101 | 63 | 0 | 0.0 | 1.0 | 0.00 | 0.00 | 0.00 | 95 | 1017.6 |
| 20260901094605 | 62 | 276 | 0.0 | 1.0 | 0.00 | 0.00 | 0.00 | 95 | 1017.5 |
| 20260901094100 | 62 | 0 | 0.0 | 1.0 | 0.00 | 0.00 | 0.00 | 95 | 1017.4 |
| 20260901093604 | 63 | 0 | 0.0 | 2.0 | 0.00 | 0.00 | 0.00 | 95 | 1017.4 |
| 20260901093128 | 63 | 0 | 0.0 | 2.0 | 0.00 | 0.00 | 0.00 | 95 | 1017.3 |
| 20260901092600 | 62 | 305 | 0.0 | 2.0 | 0.00 | 0.00 | 0.00 | 95 | 1017.2 |
| 20260901092100 | 63 | 0 | 0.0 | 2.0 | 0.00 | 0.00 | 0.00 | 95 | 1017.3 |
| 20260901091609 | 63 | 155 | 0.0 | 2.0 | 0.00 | 0.00 | 0.00 | 95 | 1017.3 |
| 20260901091100 | 63 | 344 | 0.0 | 2.0 | 0.00 | 0.00 | 0.00 | 95 | 1017.2 |
| 20260901090601 | 63 | 302 | 0.0 | 1.0 | 0.00 | 0.00 | 0.00 | 95 | 1017.2 |
| 20260901085602 | 63 | 0 | 0.0 | 2.0 | 0.00 | 0.00 | 0.00 | 95 | 1017.4 |
| 20260901085059 | 63 | 0 | 0.0 | 3.0 | 0.00 | 0.00 | 0.00 | 95 | 1017.5 |
| 20260901084601 | 63 | 0 | 0.0 | 3.0 | 0.00 | 0.00 | 0.00 | 95 | 1017.5 |
| 20260901084059 | 63 | 244 | 2.0 | 3.0 | 0.00 | 0.00 | 0.00 | 95 | 1017.6 |
| 20260901083559 | 63 | 253 | 0.0 | 1.0 | 0.00 | 0.00 | 0.00 | 95 | 1017.6 |
| 20260901083103 | 63 | 0 | 0.0 | 2.0 | 0.00 | 0.00 | 0.00 | 95 | 1017.6 |
| 20260901082601 | 63 | 0 | 0.0 | 2.0 | 0.00 | 0.00 | 0.00 | 95 | 1017.9 |
| 20260901082058 | 63 | 1 | 0.0 | 1.0 | 0.00 | 0.00 | 0.00 | 95 | 1017.7 |
| 20260901081615 | 63 | 0 | 0.0 | 1.0 | 0.00 | 0.00 | 0.00 | 95 | 1017.8 |
| 20260901081103 | 63 | 0 | 0.0 | 1.0 | 0.00 | 0.00 | 0.00 | 95 | 1017.8 |
| 20260901080601 | 63 | 360 | 0.0 | 1.0 | 0.00 | 0.00 | 0.00 | 95 | 1017.9 |
| 20260901080105 | 63 | 0 | 0.0 | 0.0 | 0.00 | 0.00 | 0.00 | 95 | 1017.9 |
| 20260901075603 | 63 | 0 | 0.0 | 1.0 | 0.00 | 0.00 | 0.00 | 95 | 1017.9 |
| 20260901075100 | 63 | 0 | 0.0 | 1.0 | 0.00 | 0.00 | 0.00 | 95 | 1017.9 |
| 20260901074604 | 63 | 0 | 0.0 | 1.0 | 0.00 | 0.00 | 0.00 | 94 | 1017.9 |
| 20260901074059 | 63 | 0 | 0.0 | 1.0 | 0.00 | 0.00 | 0.00 | 94 | 1017.7 |
| 20260901073559 | 63 | 0 | 0.0 | 1.0 | 0.00 | 0.00 | 0.00 | 95 | 1017.7 |
| 20260901073104 | 63 | 0 | 0.0 | 0.0 | 0.00 | 0.00 | 0.00 | 94 | 1017.8 |
| 20260901072602 | 63 | 0 | 0.0 | 1.0 | 0.00 | 0.00 | 0.00 | 94 | 1017.8 |
| 20260901072059 | 63 | 0 | 0.0 | 1.0 | 0.00 | 0.00 | 0.00 | 94 | 1017.6 |
| 20260901071607 | 63 | 0 | 0.0 | 1.0 | 0.00 | 0.00 | 0.00 | 94 | 1017.8 |
| 20260901071059 | 63 | 0 | 0.0 | 1.0 | 0.00 | 0.00 | 0.00 | 94 | 1017.8 |
| 20260901070558 | 63 | 0 | 0.0 | 0.0 | 0.00 | 0.00 | 0.00 | 94 | 1017.8 |
| 20260901070105 | 63 | 0 | 0.0 | 0.0 | 0.00 | 0.00 | 0.00 | 94 | 1017.8 |
| 20260901065600 | 63 | 0 | 0.0 | 0.0 | 0.00 | 0.00 | 0.00 | 94 | 1017.8 |
| 20260901065100 | 63 | 0 | 0.0 | 0.0 | 0.00 | 0.00 | 0.00 | 94 | 1018.0 |
| 20260901064605 | 63 | 0 | 0.0 | 0.0 | 0.00 | 0.00 | 0.00 | 94 | 1017.9 |
| 20260901064100 | 63 | 0 | 0.0 | 0.0 | 0.00 | 0.00 | 0.00 | 94 | 1018.0 |
| 20260901063559 | 63 | 0 | 0.0 | 0.0 | 0.00 | 0.00 | 0.00 | 94 | 1018.2 |
| 20260901063102 | 63 | 0 | 0.0 | 1.0 | 0.00 | 0.00 | 0.00 | 94 | 1018.2 |
| 20260901062558 | 63 | 0 | 0.0 | 1.0 | 0.00 | 0.00 | 0.00 | 94 | 1018.4 |
| 20260901062100 | 63 | 0 | 0.0 | 1.0 | 0.00 | 0.00 | 0.00 | 94 | 1018.4 |
| 20260901061608 | 63 | 0 | 0.0 | 1.0 | 0.00 | 0.00 | 0.00 | 94 | 1018.5 |
| 20260901061100 | 63 | 0 | 0.0 | 1.0 | 0.00 | 0.00 | 0.00 | 94 | 1018.4 |
| 20260901060601 | 63 | 0 | 0.0 | 1.0 | 0.00 | 0.00 | 0.00 | 94 | 1018.4 |
| 20260901060108 | 63 | 0 | 0.0 | 0.0 | 0.00 | 0.00 | 0.00 | 94 | 1018.3 |
| 20260901055601 | 63 | 0 | 0.0 | 0.0 | 0.00 | 0.00 | 0.00 | 94 | 1018.4 |
| 20260901055059 | 63 | 0 | 0.0 | 0.0 | 0.00 | 0.00 | 0.00 | 94 | 1018.5 |
| 20260901054604 | 63 | 0 | 0.0 | 0.0 | 0.00 | 0.00 | 0.00 | 94 | 1018.5 |
| 20260901054059 | 63 | 0 | 0.0 | 0.0 | 0.00 | 0.00 | 0.00 | 94 | 1018.4 |
| 20260901053602 | 63 | 0 | 0.0 | 0.0 | 0.00 | 0.00 | 0.00 | 94 | 1018.6 |
| 20260901053123 | 63 | 0 | 0.0 | 0.0 | 0.00 | 0.00 | 0.00 | 94 | 1018.8 |
| 20260901052601 | 63 | 0 | 0.0 | 2.0 | 0.00 | 0.00 | 0.00 | 94 | 1018.8 |
| 20260901052059 | 63 | 0 | 0.0 | 2.0 | 0.00 | 0.00 | 0.00 | 93 | 1018.8 |
| 20260901051605 | 63 | 0 | 0.0 | 2.0 | 0.00 | 0.00 | 0.00 | 93 | 1018.8 |
| 20260901051059 | 63 | 0 | 0.0 | 0.0 | 0.00 | 0.00 | 0.00 | 93 | 1018.9 |
| 20260901050602 | 63 | 0 | 0.0 | 0.0 | 0.00 | 0.00 | 0.00 | 93 | 1019.0 |
| 20260901050117 | 63 | 0 | 0.0 | 0.0 | 0.00 | 0.00 | 0.00 | 93 | 1018.9 |
| 20260901045600 | 63 | 0 | 0.0 | 1.0 | 0.00 | 0.00 | 0.00 | 93 | 1019.0 |
| 20260901045102 | 63 | 0 | 0.0 | 1.0 | 0.00 | 0.00 | 0.00 | 93 | 1019.1 |
| 20260901044619 | 63 | 321 | 0.0 | 1.0 | 0.00 | 0.00 | 0.00 | 93 | 1019.1 |
| 20260901044101 | 63 | 0 | 0.0 | 1.0 | 0.00 | 0.00 | 0.00 | 93 | 1019.0 |